Clear Lake, IA

10:50 AM CDT on July 23, 2016 (GMT -0500)
Mason City Municipal

Weather History for KMCW - May, 2014

Change the Weather History Date:

Monday, May 5, 2014

  Actual Average Record
Temperature  
Mean Temperature 54 °F 55 °F  
Max Temperature 66 °F 67 °F 91 °F (1924)
Min Temperature 42 °F 43 °F 24 °F (1900)
Degree Days  
Heating Degree Days 11 11  
Month to date heating degree days 78 57  
Since 1 July heating degree days 8441 7457  
Cooling Degree Days 0 0  
Month to date cooling degree days 0 0  
Year to date cooling degree days 0 5  
Growing Degree Days 4 (Base 50)    
Moisture  
Dew Point 36 °F    
Average Humidity 58    
Maximum Humidity 82    
Minimum Humidity 34    
Precipitation  
Precipitation 0.00 in 0.14 in 1.40 in (1982)
Month to date precipitation 0.16 0.71  
Year to date precipitation 11.87 8.51  
Snow  
Snow 0.00 in 0.00 in 2.00 in (1944)
Month to date snowfall 0.0 0.1  
Since 1 July snowfall 58.0 41.3  
Snow Depth 0.00 in    
Sea Level Pressure  
Sea Level Pressure 29.93 in    
Wind  
Wind Speed 12 mph (East)    
Max Wind Speed 20 mph    
Max Gust Speed 25 mph    
Visibility 10 miles    
Events      
T = Trace of Precipitation, MM = Missing Value Source: NWS Daily Summary

Daily Weather History Graph

Daily Weather History Graph

Search for Another Location

Airport or City:

Trip Planner

Search our weather history database for the weather conditions in past years. The results will help you decide how hot, cold, wet, or windy it might be!

Date:

Astronomy

May. 05, 2014 Rise Set
Actual Time 6:01 AM CDT 8:19 PM CDT
Civil Twilight 5:29 AM CDT 8:51 PM CDT
Nautical Twilight 4:50 AM CDT 9:30 PM CDT
Astronomical Twilight 4:07 AM CDT 10:13 PM CDT
Moon 11:22 AM CDT (5/5) 1:03 AM CDT (5/5)
Length of Visible Light 15h 21m
Length of Day
14h 17m
Waxing Crescent, 37% of the Moon is Illuminated
May 5
Waxing Crescent
May 6
First Quarter
May 14
Full
May 21
Last Quarter
May 28
New

Hourly Weather History & Observations

Time (CDT) Temp. Windchill Dew Point Humidity Pressure Visibility Wind Dir Wind Speed Gust Speed Precip Events Conditions
12:53 AM 44.1 °F 40.1 °F 37.0 °F 76% 29.96 in 10.0 mi East 6.9 mph - N/A   Clear
1:53 AM 44.1 °F 39.5 °F 37.9 °F 79% 29.96 in 10.0 mi NE 8.1 mph - N/A   Mostly Cloudy
2:53 AM 43.0 °F 38.2 °F 37.9 °F 82% 29.93 in 10.0 mi East 8.1 mph - N/A   Partly Cloudy
3:53 AM 46.0 °F 41.4 °F 37.0 °F 71% 29.95 in 10.0 mi ENE 9.2 mph - N/A   Overcast
4:53 AM 46.0 °F 41.4 °F 36.0 °F 68% 29.92 in 10.0 mi East 9.2 mph - N/A   Partly Cloudy
5:53 AM 46.0 °F 40.6 °F 36.0 °F 68% 29.93 in 10.0 mi East 11.5 mph - N/A   Overcast
6:53 AM 46.0 °F 41.4 °F 37.0 °F 71% 29.96 in 10.0 mi ENE 9.2 mph - N/A   Overcast
7:53 AM 46.9 °F - 36.0 °F 66% 29.96 in 10.0 mi East 13.8 mph - N/A   Overcast
8:53 AM 48.9 °F - 33.1 °F 54% 29.97 in 10.0 mi East 16.1 mph - N/A   Overcast
9:53 AM 52.0 °F - 33.1 °F 49% 29.96 in 10.0 mi East 16.1 mph - N/A   Mostly Cloudy
10:53 AM 55.0 °F - 34.0 °F 45% 29.95 in 10.0 mi East 16.1 mph 21.9 mph N/A   Clear
11:53 AM 59.0 °F - 35.1 °F 41% 29.94 in 10.0 mi East 15.0 mph - N/A   Clear
12:53 PM 60.8 °F - 33.8 °F 36% 29.93 in 10.0 mi East 12.7 mph - N/A   Clear
1:53 PM 63.0 °F - 35.1 °F 35% 29.92 in 10.0 mi East 13.8 mph 21.9 mph N/A   Clear
2:53 PM 64.0 °F - 35.1 °F 34% 29.91 in 10.0 mi ENE 10.4 mph 18.4 mph N/A   Clear
3:53 PM 64.9 °F - 36.0 °F 34% 29.89 in 10.0 mi East 13.8 mph 23.0 mph N/A   Clear
4:53 PM 64.9 °F - 35.1 °F 33% 29.89 in 10.0 mi East 13.8 mph 20.7 mph N/A   Clear
5:53 PM 64.9 °F - 36.0 °F 34% 29.89 in 10.0 mi East 15.0 mph - N/A   Clear
6:53 PM 63.0 °F - 37.9 °F 40% 29.89 in 10.0 mi East 15.0 mph - N/A   Clear
7:53 PM 59.0 °F - 37.9 °F 46% 29.91 in 10.0 mi East 10.4 mph - N/A   Clear
8:53 PM 54.0 °F - 39.0 °F 57% 29.91 in 10.0 mi ESE 8.1 mph - N/A   Clear
9:53 PM 54.0 °F - 37.0 °F 53% 29.92 in 10.0 mi ESE 10.4 mph - N/A   Clear
10:53 PM 53.6 °F - 37.4 °F 54% 29.93 in 10.0 mi ESE 11.5 mph - N/A   Clear
11:53 PM 51.1 °F - 37.0 °F 59% 29.92 in 10.0 mi ESE 12.7 mph - N/A   Clear